Regional Weather Roundup
Issued by NWS

Home | Current Version | Previous Version | Text Only | Print | Product List | Glossary Off
Versions: 1 2 3 4 5 6 7 8 9 10 11 12 13 14 15 16 17 18 19 20 21 22 23 24 25 26 27 28 29 30 31 32 33 34 35 36 37 38 39 40 41 42 43 44 45 46 47 48 49 50

000
ASUS43 KLOT 210958
RWRIL

ILLINOIS REGIONAL WEATHER ROUNDUP
NATIONAL WEATHER SERVICE CHICAGO/ROMEOVILLE IL
400 AM CST SUN DEC 21 2014

NOTE: "FAIR" INDICATES FEW OR NO CLOUDS BELOW 12,000 FEET WITH NO
SIGNIFICANT WEATHER AND/OR OBSTRUCTIONS TO VISIBILITY.

* THESE STATIONS ARE NOT UNDER NWS QUALITY CONTROL. THEY ALSO MAY NOT
  REPORT WEATHER SUCH AS PRECIPITATION OR FOG.

ILZ001-002-007-009-015-016-024-211100-
NORTHWEST ILLINOIS

CITY           SKY/WX    TMP DP  RH WIND       PRES   REMARKS
MOLINE         CLOUDY    35  32  88 S3        30.15F
$$

ILZ003-004-008-010-011-017-018-211100-
NORTH CENTRAL ILLINOIS

CITY           SKY/WX    TMP DP  RH WIND       PRES   REMARKS
ROCKFORD       NOT AVBL
$$

ILZ005-006-012>014-019>023-211100-
NORTHEAST ILLINOIS

CITY           SKY/WX    TMP DP  RH WIND       PRES   REMARKS
CHICAGO-OHARE  CLOUDY    32  27  81 S7        30.21F WCI  26
CHICAGO-MIDWAY CLOUDY    34  27  75 S9        30.23F WCI  27
AURORA         CLOUDY    33  27  78 S6        30.21F HAZE    WCI  28
WAUKEGAN       CLOUDY    32  26  78 S6        30.21F WCI  26
DUPAGE AIRPORT CLOUDY    32  27  81 S8        30.20F WCI  25
WHEELING       CLOUDY    33  26  75 S7        30.23F WCI  27
NORTHERLY ISL    N/A     33  26  76 S8          N/A  WCI  26
$$

LMZ740>746-211100-
SOUTHERN LAKE MICHIGAN

STATION/POSITION SKY/WX   TEMP    WIND        PRES    VSBY  WAVE
                          AIR SEA DIR/SP/G                  HT/PER
                          (F)     (DEG/KT/KT) (MB)    (MI)  (FT/S)
WAUKEGAN HARBOR            33     200/  9/ 13   N/A
HARRISON CRIB              33     180/ 12/ 14   N/A
BURNHAM HARBOR             33     180/  6/  9   N/A
CALUMET HARBOR             33     180/  5/ 11 1022.7F
$$

ILZ025>027-034>036-040-047-049-050-058-095>099-211100-
WEST-CENTRAL ILLINOIS

CITY           SKY/WX    TMP DP  RH WIND       PRES   REMARKS
$$

ILZ028>032-037-038-041>044-048-051>054-059>061-211100-
CENTRAL ILLINOIS

CITY           SKY/WX    TMP DP  RH WIND       PRES   REMARKS
BLOOMINGTON    CLOUDY    32  30  93 S10       30.22F WCI  24
PEORIA         NOT AVBL
SPRINGFIELD    CLOUDY    37  31  78 S9        30.21F WCI  30
TAYLORVILLE    NOT AVBL
$$

ILZ033-039-045-046-055>057-062-063-211100-
EAST-CENTRAL ILLINOIS

CITY           SKY/WX    TMP DP  RH WIND       PRES   REMARKS
CHAMPAIGN      CLOUDY    32  28  85 SE8       30.23F WCI  25
MATTOON        CLOUDY    31  26  82 S9        30.23F WCI  23
$$

ILZ079-100>102-211100-
SOUTHWEST ILLINOIS

CITY           SKY/WX    TMP DP  RH WIND       PRES   REMARKS
CAHOKIA*       CLOUDY    40  34  79 SE8       30.21F
$$

ILZ064>066-069>071-074>076-080>082-084>086-088>090-092>094-211100-
SOUTH-CENTRAL ILLINOIS

CITY           SKY/WX    TMP DP  RH WIND       PRES   REMARKS
CARBONDALE     CLOUDY    28  25  88 CALM      30.25F
$$

ILZ067-068-072-073-078-083-087-091-211100-
SOUTHEAST ILLINOIS

CITY           SKY/WX    TMP DP  RH WIND       PRES   REMARKS
LAWRENCEVILLE  CLEAR     24  22  91 E3        30.29S FOG
$$

ABBREVIATIONS USED IN REMARKS
   TC - TEMPERATURE IN CELSIUS
  WCI - WIND CHILL INDEX
   HX - HEAT INDEX
  VSB - VISIBILITY
$$



USA.gov is the U.S. government's official web portal to all federal, state and local government web resources and services.